アトラス彗星

C/2022 F1 ( ATLAS )

English version
Home page
Updated on December 11, 2022

---------------------------------------------------------------------

・ プロフィール

発見日 2022年3月30日
発見光度 18.6等
発見者 Asteroid Terrestrial-Impact Last Alert System (ATLAS) search program

・ 軌道要素

Epoch 2023 Feb. 25.0 TT = JDT 2460000.5
T 2022 Aug. 5.21214 TT                                  Rudenko
q   5.9746041            (2000.0)            P               Q
z  +0.0000876      Peri.  278.27540     +0.05680990     +0.98884972
 +/-0.0000054      Node   350.65561     -0.16282818     -0.12685475
e   0.9994768      Incl.   57.97255     -0.98501757     +0.07800062
>From 114 observations 2022 Mar. 30-Nov. 14, mean residual 0".5.

・ 光度変化

        m1 = 6.5 + 5 logΔ + 10.0 log r

---------------------------------------------------------------------

軌道要素はM.P.E.C. 2022-W132に掲載されたものです。
光度グラフはComet for Windowsで作成したものです。

---------------------------------------------------------------------

Copyright(C) Seiichi Yoshida (comet@aerith.net). All rights reserved.